TimeCDT,TemperatureF,Dew PointF,Humidity,Sea Level PressureIn,VisibilityMPH,Wind Direction,Wind SpeedMPH,Gust SpeedMPH,PrecipitationIn,Events,Conditions,WindDirDegrees,DateUTC
12:56 AM,81.0,69.1,67,29.75,-9999.0,East,5.8,-,N/A,,Unknown,100,2013-06-26 05:56:00
1:56 AM,81.0,69.1,67,29.73,-9999.0,ESE,8.1,-,N/A,,Unknown,110,2013-06-26 06:56:00
2:56 AM,79.0,68.0,69,29.73,-9999.0,ESE,6.9,-,N/A,,Unknown,110,2013-06-26 07:56:00
3:56 AM,77.0,68.0,74,29.71,-9999.0,ESE,6.9,-,N/A,,Unknown,120,2013-06-26 08:56:00
4:56 AM,75.0,68.0,79,29.73,-9999.0,East,6.9,-,N/A,,Unknown,100,2013-06-26 09:56:00
5:56 AM,73.9,66.9,79,29.75,-9999.0,ESE,5.8,-,N/A,,Unknown,110,2013-06-26 10:56:00
6:56 AM,73.0,66.9,81,29.78,-9999.0,East,5.8,-,N/A,,Unknown,100,2013-06-26 11:56:00
7:56 AM,77.0,66.0,69,29.79,-9999.0,SE,3.5,-,N/A,,Unknown,130,2013-06-26 12:56:00
8:56 AM,81.0,64.9,58,29.79,-9999.0,South,5.8,-,N/A,,Unknown,170,2013-06-26 13:56:00
9:56 AM,84.9,64.0,49,29.80,-9999.0,South,5.8,-,N/A,,Unknown,190,2013-06-26 14:56:00
10:56 AM,89.1,64.0,43,29.80,-9999.0,SE,6.9,-,N/A,,Unknown,140,2013-06-26 15:56:00
11:56 AM,97.0,64.9,35,29.80,-9999.0,ENE,8.1,-,N/A,,Unknown,70,2013-06-26 16:56:00
12:56 PM,99.0,64.9,33,29.80,-9999.0,ESE,9.2,-,N/A,,Unknown,110,2013-06-26 17:56:00
1:56 PM,99.0,63.0,30,29.80,-9999.0,Variable,5.8,-,N/A,,Unknown,0,2013-06-26 18:56:00
2:56 PM,102.0,62.1,27,29.78,-9999.0,Variable,5.8,-,N/A,,Unknown,0,2013-06-26 19:56:00
3:56 PM,102.0,63.0,28,29.78,-9999.0,SSE,10.4,19.6,N/A,,Unknown,150,2013-06-26 20:56:00
4:56 PM,102.9,63.0,27,29.77,-9999.0,ESE,12.7,19.6,N/A,,Unknown,120,2013-06-26 21:56:00
5:56 PM,102.0,64.0,29,29.78,-9999.0,SE,12.7,-,N/A,,Unknown,130,2013-06-26 22:56:00
6:56 PM,100.0,64.9,32,29.78,-9999.0,South,8.1,18.4,N/A,,Unknown,170,2013-06-26 23:56:00
7:56 PM,98.1,64.9,34,29.79,-9999.0,SSE,9.2,-,N/A,,Unknown,160,2013-06-27 00:56:00
8:56 PM,93.9,66.9,41,29.81,-9999.0,SE,6.9,-,N/A,,Unknown,140,2013-06-27 01:56:00
9:56 PM,90.0,70.0,52,29.84,-9999.0,SSE,6.9,-,N/A,,Unknown,160,2013-06-27 02:56:00
10:56 PM,88.0,70.0,55,29.86,-9999.0,SE,5.8,-,N/A,,Unknown,140,2013-06-27 03:56:00
11:56 PM,84.9,71.1,63,29.87,-9999.0,SSE,6.9,-,N/A,,Unknown,150,2013-06-27 04:56:00